AirNav   Air Wisconsin Up To $57,000 Bonus
 
 445 users online  

KRIR Flabob Airport
Riverside/Rubidoux, California, USA

GOING TO RIVERSIDE/RUBIDOUX?


FAA INFORMATION EFFECTIVE 25 MARCH 2021

Location

FAA Identifier: RIR
Lat/Long: 33-59-19.6350N 117-24-35.6750W
33-59.327250N 117-24.594583W
33.9887875,-117.4099097
(estimated)
Elevation: 767 ft. / 234 m (estimated)
Variation: 13E (2010)
From city: 3 miles NW of central business district of the associated city
Time zone: UTC -7 (UTC -8 during Standard Time)
Zip code: 92509

Airport Operations

Airport use: Open to the public
Activation date: 04/1942
Control tower: no
ARTCC: LOS ANGELES CENTER
FSS: RIVERSIDE FLIGHT SERVICE STATION
NOTAMs facility: RAL (NOTAM-D service available)
Attendance: MON-FRI 0830-1630
Pattern altitude: 1467 ft. MSL
NIGHT TPA 1000 FT AGL AROUND THE MOUNTAIN.
Wind indicator: lighted
Segmented circle: no
Lights: DUSK-DAWN. ACTVT MIRL RY 06/24 - CTAF.

Airport Communications

CTAF/UNICOM: 122.8
SOCAL APPROACH: 135.4
SOCAL DEPARTURE: 135.4
WX ASOS at RAL (2.8 nm SW): 128.8 (951-352-4392)
WX ASOS at ONT (10 nm NW): PHONE 909-937-2186
WX AWOS-3 at SBD (11 nm NE): 124.175 (909-382-0067)
WX AWOS-3PT at AJO (11 nm SW): 132.175 (951-340-4764)
WX ASOS at CNO (11 nm W): PHONE 909-393-5823
WX AWOS-3P at CCB (16 nm NW): 119.525 (909-985-4731)
WX AWOS-3PT at POC (19 nm W): 124.4 (909-596-1523)

Nearby radio navigation aids

VOR radial/distance  VOR name  Freq  Var
RALr031/(2.8)RIVERSIDE VOR112.4014E
PDZr040/7.3PARADISE VORTAC112.2015E
HDFr305/(17.0)HOMELAND VOR113.4014E
POMr091/19.5POMONA VORTAC110.4015E
ELBr026/24.7EL TORO VOR/DME117.2014E
SLIr054/34.4SEAL BEACH VORTAC115.7015E
VCVr168/36.3VICTORVILLE VOR/DME109.0514E

 
NDB name  Hdg/Dist  Freq  Var  ID
PETIS194/4.639714ESB ... -...

Airport Services

Fuel available: 100LL
Parking: tiedowns
Airframe service: MAJOR
Powerplant service: MAJOR
Bottled oxygen: NONE
Bulk oxygen: NONE

Runway Information

Runway 6/24

Dimensions: 3190 x 50 ft. / 972 x 15 m
Surface: asphalt, in poor condition
RWY 6/24 THERMAL AND BLOCK CRACKING
Runway edge lights: medium intensity
RY 06/24 NSTD MIRL; ONE RED/GREEN LGT EACH SIDE OF THLD.
Runway edge markings: RWY MARKINGS FADED.
RUNWAY 6  RUNWAY 24
Latitude: 33-59.267000N33-59.387500N
Longitude: 117-24.901833W117-24.287333W
Elevation: 750.3 ft.766.8 ft.
Traffic pattern: leftleft
Runway heading: 064 magnetic, 077 true244 magnetic, 257 true
Markings: basic, in poor conditionbasic, in poor condition
Runway end identifier lights: nono
Touchdown point: yes, no lightsyes, no lights
Obstructions: 25 ft. trees, 310 ft. from runway, 4:1 slope to clearnone

Airport Ownership and Management from official FAA records

Ownership: Privately-owned
Owner: FLABOB AIRPORT, LLC
4130 MENNES AVE
RIVERSIDE, CA 92509
Phone 951-683-2309
Manager: BETH LAROCK
4130 MENNES AVE
RIVERSIDE, CA 92509
Phone 951-683-2309

Airport Operational Statistics

Aircraft based on the field: 122
Single engine airplanes: 110
Multi engine airplanes: 12
    
Aircraft operations: avg 30/day *
74% local general aviation
26% transient general aviation
* for 12-month period ending 31 December 2020

Additional Remarks

MTN 1340 FT MSL 3/4 MILE SE OF ARPT +20 FT CROSS ON TOP.
DEPARTURES TO THE SOUTH CTC RIVERSIDE ATCT.
RY 24 AFT TKOF TURN LEFT 10 DEG; STAY NORTH OF RIVERBED.
RY 24 CALM WIND RY.
FOR CD CTC SOCAL APCH AT 800-448-3724.

Instrument Procedures

NOTE: All procedures below are presented as PDF files. If you need a reader for these files, you should download the free Adobe Reader.

NOT FOR NAVIGATION. Please procure official charts for flight.
FAA instrument procedures published for use from 25 March 2021 at 0901Z to 22 April 2021 at 0900z.

 
IAPs - Instrument Approach Procedures
RNAV (GPS)-A   download (260KB)
NOTE: Special Take-Off Minimums/Departure Procedures apply   download (132KB)

Other nearby airports with instrument procedures:

KRAL - Riverside Municipal Airport (3 nm SW)
KRIV - March Air Reserve Base (10 nm SE)
KONT - Ontario International Airport (10 nm NW)
KSBD - San Bernardino International Airport (11 nm NE)
KAJO - Corona Municipal Airport (11 nm SW)
KCNO - Chino Airport (11 nm W)
KREI - Redlands Municipal Airport (14 nm NE)
KCCB - Cable Airport (16 nm NW)
KPOC - Brackett Field Airport (19 nm W)
 
Loc | Ops | Rwys | IFR | FBO | Links
Com | Nav | Svcs | Stats | Notes

San Bernardino International Airport Authority
 
Area around KRIR (Flabob Airport)
 
Road maps at: MapQuest Bing Google
 
Aerial photo
WARNING: Photo may not be current or correct
Aerial photo of KRIR (Flabob Airport)
Photo by Fred Emmert AirViews.com
Photo taken 25-Sep-2013
looking northeast.

Do you have a better or more recent aerial photo of Flabob Airport that you would like to share? If so, please send us your photo.

 
Sectional chart

 
Airport distance calculator
Flying to Flabob Airport? Find the distance to fly.

From to KRIR

Sunrise and sunset
Times for 14-Apr-2021
 Local
(UTC-7)
 Zulu
(UTC)
Morning civil twilight05:5512:55
Sunrise06:2113:21
Sunset19:1902:19
Evening civil twilight19:4502:45

Current date and time
Zulu (UTC)  15-Apr-2021 06:14:29
Local (UTC-7)  14-Apr-2021 23:14:29
 
METAR
KRAL 
3nm SW 
150553Z AUTO 35003KT 10SM BKN029 OVC037 11/06 A3003 RMK AO2 SLP158 T01110061 51021 $
KONT 
9nm NW 
150553Z 26008KT 10SM BKN029 11/06 A3002 RMK AO2 SLP163 T01110056 10172 20111 51018
KRIV 
10nm SE 
150558Z AUTO 16006KT 10SM OVC028 10/05 A3002 RMK AO2 CIG 020 RWY14 SLP163 T01000052 10173 20100 52021
KCNO 
10nm W 
150553Z AUTO 27007KT 10SM FEW031 10/06 A3003 RMK AO2 SLP168 T01000061 10167 20100 51020
KSBD 
11nm NE 
150600Z AUTO 25007KT 10SM SCT030 SCT045 12/05 A3002 RMK AO2 T01200050
KAJO 
11nm SW 
150556Z AUTO 24004KT 10SM CLR 11/07 A3003 RMK AO2 SLP164 T01110067 10172 20111 51019
KCCB 
16nm NW 
119.525 909-985-4731
150555Z AUTO 24009KT 10SM 10/05 A3002 RMK AO2
KPOC 
19nm W 
150347Z 23007KT 7SM OVC027 11/07 A3003 RMK LAST
TAF
KONT 
9nm NW 
141730Z 1418/1524 25008KT P6SM FEW022 BKN050 FM142000 26012KT P6SM SCT050 FM150500 25006KT P6SM BKN035 FM151000 VRB04KT P6SM BKN025 FM151600 VRB04KT P6SM SCT040 FM152200 26008KT P6SM SCT250
KRIV 
10nm SE 
150400Z 1504/1610 32009KT 9999 BKN030 BKN200 520509 QNH2996INS WND 16006KT AFT 1505 BECMG 1507/1508 32006KT 9999 BKN018 BKN200 520509 QNH2997INS BECMG 1511/1512 16006KT 9999 OVC012 QNH2997INS BECMG 1515/1516 16006KT 9999 SCT020 SCT250 QNH3002INS BECMG 1517/1518 VRB06KT 9999 FEW030 SCT250 QNH2998INS BECMG 1519/1520 31009KT 9999 FEW250 QNH2991INS TEMPO 1522/1601 31012G18KT BECMG 1603/1604 VRB05KT 9000 BR FEW250 QNH2992INS TX22/1522Z TN07/1514Z
KSBD 
11nm NE 
141730Z 1418/1518 24006KT P6SM SCT025 BKN045 FM142000 26010KT P6SM SCT040 FM150300 VRB05KT P6SM BKN040 FM151000 VRB04KT P6SM BKN030 FM151600 VRB04KT P6SM SCT050
NOTAMs
Click for the latest NOTAMs
NOTAMs are issued by the DoD/FAA and will open in a separate window not controlled by AirNav.

 

 
 

FBO, Fuel Providers, and Aircraft Ground Support

  
 Business Name 
 
 Contact 
 
 Services / Description 
 
Fuel Prices
 
Comments
  
Flabob Airport 951-683-2309
[web site]
Airport management, Aviation fuel, Aircraft parking (ramp or tiedown), Hangar leasing / sales, Flight training, Aircraft maintenance, Restrooms, Restaurant

More info about Flabob Airport
Phillips 66
100LL
SS $4.00 
 Updated 02-Apr-2021
 
   1 read write
SS=Self service
Update Fuel Prices
 

Where to Eat: Catering, Restaurants, Food shops

  
 Business Name 
 
 Contact 
 
 Services / Description 
 
Distance
 
Comments
  
Flabob Cafe 951-686-6660
no information available

If you are affiliated with Flabob Cafe and would like to show here your services, contact info, web link, logo, and more, click here
on airport  
   write
 

Would you like to see your business listed on this page?

 If your business provides an interesting product or service to pilots, flight crews, aircraft, or users of the Flabob Airport, you should consider listing it here.  To start the listing process, click on the button below
 
Add a business
 

Other Pages about Flabob Airport

www.flabob.org
philtilden.com/...
 
Update a link
 
Copyright © AirNav, LLC. All rights reserved. Privacy Policy  Contact